Regional Weather Roundup
Issued by NWS

Home | Current Version | Previous Version | Graphics & Text | Print | Product List | Glossary Off
Versions: 1 2 3 4 5 6 7 8 9 10 11 12 13 14 15 16 17 18 19 20 21 22 23 24 25 26 27 28 29 30 31 32 33 34 35 36 37 38 39 40 41 42 43 44 45 46 47 48 49 50

000
ASUS43 KMPX 231510
RWRMN
WEATHER ROUNDUP FOR MINNESOTA
NATIONAL WEATHER SERVICE TWIN CITIES/CHANHASSEN MN
1000 AM CDT TUE MAY 23 2017


NOTE: "FAIR" INDICATES FEW OR NO CLOUDS BELOW 12,000 FEET WITH NO
SIGNIFICANT WEATHER AND/OR OBSTRUCTIONS TO VISIBILITY. N/A MEANS
CURRENT SKY AND/OR WEATHER CONDITIONS ARE NOT AVAILABLE.

MNZ060>063-068>070-231600-
   Twin Cities Metro

CITY           SKY/WX    TMP DP  RH WIND       PRES   REMARKS
TWIN CITIES    CLOUDY    55  45  68 E5        29.83R
ST PAUL        CLOUDY    54  48  80 N3        29.84R
CRYSTAL        CLOUDY    54  45  71 N6        29.82S
BLAINE         CLOUDY    55  46  71 N5        29.83R
LAKEVILLE      DRIZZLE   52  46  82 N5        29.82S
EDEN PRAIRIE   CLOUDY    54  46  74 N3        29.82S
SOUTH ST PAUL  CLOUDY    54  47  77 NE3       29.83R
LAKE ELMO      PTSUNNY   52  48  87 CALM      29.84S
$$
MNZ001>005-007-008-013>017-022>024-027-028-231600-
   Northwest Minnesota

CITY           SKY/WX    TMP DP  RH WIND       PRES   REMARKS
BEMIDJI        CLOUDY    46  45  96 NE12G17   29.92R
HALLOCK        SUNNY     57  45  62 N18       30.03S
ROSEAU         CLOUDY    54  45  71 NE21      30.00S
WARROAD        CLOUDY    54  45  71 NE16G25   30.01S
THIEF RVR FALL CLOUDY    48  41  76 NE20G26   29.99R
CROOKSTON      CLOUDY    52  45  76 NE15G22   29.99S
FOSSTON        DRIZZLE   45  45 100 N14G20    29.96R
DETROIT LAKES  LGT RAIN  50  46  87 N7        29.92R
MOORHEAD       CLOUDY    48  46  93 N20       29.95R
PARK RAPIDS    CLOUDY    52  42  69 NE10      29.89R
MAHNOMEN       CLOUDY    48  45  90 N16       29.93R
$$
MNZ006-009>011-018-025>026-231600-
   North Central Minnesota

CITY           SKY/WX    TMP DP  RH WIND       PRES   REMARKS
BAUDETTE       CLOUDY    48  42  80 NE13      29.98R
FLAG ISLAND    CLOUDY    52  39  62 NE16G29   30.01R
INTL FALLS     CLOUDY    48  44  86 NE6       29.95S
WASKISH        CLOUDY    46  45  93 NE12G17   29.95S
BIG FORK       CLOUDY    48  46  93 NE8       29.92R
LONGVILLE      CLOUDY    48  45  87 CALM      29.90R
GRAND RAPIDS   CLOUDY    49  43  80 VRB6      29.91R
CRANE LAKE     LGT RAIN  45  45 100 NE5       29.95R
ORR            CLOUDY    48  43  81 CALM      29.90R
COOK           CLOUDY    48  46  93 NE6       29.91R
WALKER         CLOUDY    49  45  85 NE8       29.90R
$$
MNZ012-019>021-037-231600-
   Northeast Minnesota

CITY           SKY/WX    TMP DP  RH WIND       PRES   REMARKS
DULUTH         CLOUDY    50  43  77 E10       29.87R
ELY            CLOUDY    46  46 100 NE5       29.90R
HIBBING        CLOUDY    50  45  83 NE7       29.89R
EVELETH        MOSUNNY  N/A N/A N/A N7        29.90R
DULUTH HARBOR  CLOUDY    46  45  93 N6        29.89R
TWO HARBORS    CLOUDY    52  46  82 E9        29.87R
SILVER BAY     CLOUDY    50  46  87 E10       29.87S
GRAND MARAIS     N/A     45  41  86 NE5       29.89R
G MARAIS ARPRT CLOUDY    48  41  76 N7        29.89S
$$
MNZ029>031-032-039>041-046>048-054>057-064-231600-
   West Central Minnesota

CITY           SKY/WX    TMP DP  RH WIND       PRES   REMARKS
FERGUS FALLS   CLOUDY    50  48  93 N10       29.89S
WHEATON        LGT RAIN  48  45  87 NW15      29.93S
MORRIS         CLOUDY    50  46  87 N15       29.88S
ALEXANDRIA     CLOUDY    49  46  90 NE9       29.88S
ELBOW LAKE     CLOUDY    48  47  96 N13       29.89S
WADENA         CLOUDY    48  46  93 NE7       29.89R
GLENWOOD       CLOUDY    48  45  87 N9        29.87S
APPLETON       DRIZZLE   52  46  82 N15       29.88S
BENSON         CLOUDY    52  46  82 N10       29.89S
ORTONVILLE     LGT RAIN  48  45  87 N15G21    29.90S
MADISON        LGT RAIN  52  50  93 N16       29.89S
WILLMAR        FAIR      50  48  93 N8        29.88R
$$
MNZ033>034-036-042>043-049>051-058-059-231600-
   Central Minnesota

CITY           SKY/WX    TMP DP  RH WIND       PRES   REMARKS
ST CLOUD       CLOUDY    50  47  89 N7        29.86R
SAUK CENTRE    CLOUDY    47  45  93 N7        29.88R
PAYNESVILLE    CLOUDY    49  49  99 NE8       29.87S
AITKIN         CLOUDY    50  45  81 N7        29.87S
PINE RIVER     CLOUDY    50  45  81 NE6       29.92S
BRAINERD       CLOUDY    49  44  83 NE8       29.89R
STAPLES        CLOUDY    48  45  87 N8        29.89R
LONG PRAIRIE   CLOUDY    45  43  93 N5        29.88S
LITTLE FALLS   CLOUDY    46  43  87 N3        29.88R
LITCHFIELD     CLOUDY    52  46  82 N8        29.86S
BUFFALO        CLOUDY    49  45  86 N6        29.86R
MAPLE LAKE     CLOUDY    51  47  87 N7        29.86R
HUTCHINSON     CLOUDY    50  47  89 N12       29.86S
$$
MNZ037-044-045-052-053-231600-
   East Central Minnesota

CITY           SKY/WX    TMP DP  RH WIND       PRES   REMARKS
PRINCETON      CLOUDY    54  48  82 N7        29.85S
MORA           PTSUNNY   54  43  66 CALM      29.86S
CAMBRIDGE      PTSUNNY   55  45  67 N3        29.82S
RUSH CITY      CLOUDY    55  46  72 N7        29.85S
MOOSE LAKE     CLOUDY    50  43  76 NE5       29.85S
HINCKLEY       PTSUNNY   54  45  71 NE7       29.85S
CLOQUET        CLOUDY    50  43  76 NE3       29.87S
MCGREGOR       CLOUDY    48  43  81 NE7       29.88S
$$
MNZ071>073-080-081-089-090-097-098-231600-
   Southwest Minnesota

CITY           SKY/WX    TMP DP  RH WIND       PRES   REMARKS
MONTEVIDEO     RAIN      48  48 100 N9        29.88S
CANBY          DRIZZLE   50  46  85 NW13G18   29.90S
MARSHALL       LGT RAIN  48  45  87 N16       29.88S
REDWOOD FALLS  CLOUDY    51  44  77 N9        29.86S
OLIVIA         CLOUDY    50  45  81 N8        29.86R
PIPESTONE      DRIZZLE   48  43  81 N10G16    29.88S
WINDOM         CLOUDY    48  45  87 NW15      29.86S
WORTHINGTON    LGT RAIN  48  45  89 NW12      29.87S
JACKSON        CLOUDY    48  43  81 N9        29.85F
TRACY          LGT RAIN  49  46  92 N12       29.87S
SLAYTON        LGT RAIN  46  44  93 N7        29.88S
$$
MNZ065>067-074>077-082>085-091>093-231600-
   South Central Minnesota

CITY           SKY/WX    TMP DP  RH WIND       PRES   REMARKS
MANKATO        LGT RAIN  50  46  86 N9        29.84S
NEW ULM        LGT RAIN  50  45  81 NW12      29.84S
ST JAMES       LGT RAIN  50  46  87 NW9       29.86S
FAIRMONT       CLOUDY    50  45  83 N14       29.85S
GLENCOE        CLOUDY    49  49 100 NW8       29.83S
FARIBAULT      LGT RAIN  50  46  87 NW5       29.83S
OWATONNA       DRIZZLE   52  46  82 NW6       29.82S
WASECA         DRIZZLE   52  46  82 NW5       29.84S
ALBERT LEA     LGT RAIN  52  46  82 NW6       29.82S
$$
MNZ078>079-086>088-094>096-231600-
   Southeast Minnesota

CITY           SKY/WX    TMP DP  RH WIND       PRES   REMARKS
ROCHESTER      RAIN      50  48  93 NW7       29.81S FOG
RED WING       DRIZZLE   54  46  76 NE3       29.81R
STANTON        LGT RAIN  54  49  82 N5        29.81S
DODGE CENTER   LGT RAIN  52  45  76 N7        29.81S
WINONA         CLOUDY    54  50  87 CALM      29.79S
AUSTIN         PTSUNNY   52  48  87 N5        29.81S
PRESTON        CLOUDY    49  47  92 N5        29.80S
$$
ABBREVIATIONS USED IN REMARKS
   TC - TEMPERATURES IN CELSIUS
  WCI - WIND CHILL INDEX
   HX - HEAT INDEX
  VSB - VISIBILITY
$$




USA.gov is the U.S. government's official web portal to all federal, state and local government web resources and services.